• En España
  • Lista de países
  • Para 7 días
  • Temperatura del agua
  • Mapa Satelital
  • El tiempo en el mapa
  • Informadores
  • user-avatar
    Iniciar sesión

    Tiempo cada hora Martynovo

    Hoy, 22 Octubre, Lunes

    Tiempo Temperatura Precipitaciones Viento Presión Humedad
    00:00 +1°C° 0 mm 1 mps 754 mmHg 86%
    01:00 +1°C° 0 mm 1 mps 754 mmHg 86%
    02:00 +1°C° 0 mm 1 mps 754 mmHg 87%
    03:00 0°C° 0 mm 1 mps 754 mmHg 87%
    04:00 0°C° 0 mm 1 mps 754 mmHg 87%
    05:00 0°C° 0 mm 1 mps 754 mmHg 87%
    06:00 0°C° 0 mm 1 mps 754 mmHg 87%
    07:00 0°C° 0 mm 1 mps 754 mmHg 88%
    08:00 -1°C° 0 mm 2 mps 754 mmHg 82%
    09:00 +1°C° 0 mm 2 mps 754 mmHg 77%
    10:00 +2°C° 0 mm 2 mps 754 mmHg 71%
    11:00 +2°C° 0 mm 3 mps 754 mmHg 68%
    12:00 +2°C° 0 mm 3 mps 753 mmHg 65%
    13:00 +3°C° 0 mm 4 mps 753 mmHg 61%
    14:00 +3°C° 0 mm 4 mps 752 mmHg 64%
    15:00 +3°C° 0 mm 4 mps 752 mmHg 67%
    16:00 +3°C° 0 mm 4 mps 751 mmHg 70%
    17:00 +1°C° 0 mm 4 mps 751 mmHg 73%
    18:00 +1°C° 0 mm 4 mps 750 mmHg 77%
    19:00 +1°C° 0 mm 5 mps 750 mmHg 81%
    20:00 +1°C° 0 mm 5 mps 749 mmHg 81%
    21:00 +1°C° 0 mm 5 mps 749 mmHg 82%
    22:00 +1°C° 0 mm 5 mps 749 mmHg 82%
    23:00 +1°C° 0 mm 5 mps 748 mmHg 83%

    Mañana, 23 Octubre, Martes

    Tiempo Temperatura Precipitaciones Viento Presión Humedad
    00:00 0°C° 0 mm 5 mps 748 mmHg 84%
    01:00 0°C° 0 mm 5 mps 747 mmHg 84%
    02:00 0°C° 0 mm 5 mps 747 mmHg 85%
    03:00 0°C° 0 mm 5 mps 746 mmHg 86%
    04:00 0°C° 0 mm 5 mps 746 mmHg 87%
    05:00 0°C° 0 mm 5 mps 746 mmHg 89%
    06:00 0°C° 0 mm 5 mps 745 mmHg 90%
    07:00 0°C° 0 mm 5 mps 745 mmHg 91%
    08:00 +1°C° 0 mm 5 mps 744 mmHg 89%
    09:00 +2°C° 0 mm 5 mps 744 mmHg 88%
    10:00 +3°C° 0 mm 5 mps 744 mmHg 86%
    11:00 +4°C° 0.1 mm 6 mps 744 mmHg 83%
    12:00 +4°C° 0.1 mm 6 mps 743 mmHg 80%
    13:00 +5°C° 0.1 mm 6 mps 743 mmHg 77%
    14:00 +5°C° 0.1 mm 6 mps 742 mmHg 76%
    15:00 +5°C° 0.1 mm 6 mps 742 mmHg 74%
    16:00 +5°C° 0.1 mm 7 mps 741 mmHg 73%
    17:00 +5°C° 0.2 mm 7 mps 741 mmHg 73%
    18:00 +5°C° 0.2 mm 7 mps 741 mmHg 74%
    19:00 +4°C° 0.2 mm 7 mps 740 mmHg 74%
    20:00 +4°C° 0.4 mm 6 mps 740 mmHg 76%
    21:00 +4°C° 0.4 mm 6 mps 740 mmHg 78%
    22:00 +4°C° 0.4 mm 6 mps 739 mmHg 81%
    23:00 +4°C° 0.5 mm 6 mps 739 mmHg 82%

    Pasado mañana, 24 Octubre, Miércoles

    Tiempo Temperatura Precipitaciones Viento Presión Humedad
    00:00 +4°C° 0.5 mm 6 mps 738 mmHg 84%
    01:00 +5°C° 0.5 mm 5 mps 738 mmHg 85%
    02:00 +5°C° 0.2 mm 5 mps 738 mmHg 87%
    03:00 +5°C° 0.2 mm 5 mps 737 mmHg 88%
    04:00 +5°C° 0.2 mm 5 mps 737 mmHg 89%
    05:00 +5°C° 0.1 mm 4 mps 737 mmHg 90%
    06:00 +5°C° 0.1 mm 4 mps 737 mmHg 91%
    07:00 +5°C° 0.1 mm 4 mps 737 mmHg 92%
    08:00 +5°C° 0 mm 4 mps 737 mmHg 91%
    09:00 +7°C° 0 mm 3 mps 737 mmHg 91%
    10:00 +7°C° 0 mm 3 mps 737 mmHg 91%
    11:00 +7°C° 0.1 mm 3 mps 737 mmHg 90%
    12:00 +7°C° 0.1 mm 3 mps 736 mmHg 89%
    13:00 +8°C° 0.1 mm 3 mps 736 mmHg 88%
    14:00 +8°C° 0.1 mm 3 mps 736 mmHg 89%
    15:00 +8°C° 0.1 mm 3 mps 736 mmHg 90%
    16:00 +7°C° 0.1 mm 4 mps 736 mmHg 92%
    17:00 +8°C° 0.1 mm 3 mps 736 mmHg 91%
    18:00 +7°C° 0.1 mm 3 mps 736 mmHg 91%
    19:00 +7°C° 0.1 mm 3 mps 736 mmHg 90%
    20:00 +7°C° 0 mm 3 mps 737 mmHg 90%
    21:00 +5°C° 0 mm 3 mps 737 mmHg 90%
    22:00 +5°C° 0 mm 3 mps 737 mmHg 90%
    23:00 +5°C° 0 mm 3 mps 737 mmHg 91%

    25 Octubre, Jueves

    Tiempo Temperatura Precipitaciones Viento Presión Humedad
    00:00 +5°C° 0 mm 3 mps 737 mmHg 91%
    01:00 +4°C° 0 mm 3 mps 737 mmHg 92%
    02:00 +4°C° 0 mm 3 mps 737 mmHg 92%
    03:00 +4°C° 0 mm 3 mps 737 mmHg 92%
    04:00 +4°C° 0 mm 3 mps 738 mmHg 91%
    05:00 +4°C° 0 mm 3 mps 737 mmHg 91%
    06:00 +4°C° 0 mm 3 mps 737 mmHg 92%
    07:00 +4°C° 0 mm 4 mps 737 mmHg 92%
    08:00 +5°C° 0 mm 4 mps 737 mmHg 89%
    09:00 +6°C° 0 mm 5 mps 737 mmHg 86%
    10:00 +7°C° 0 mm 5 mps 737 mmHg 83%
    11:00 +7°C° 0.4 mm 5 mps 736 mmHg 84%
    12:00 +8°C° 0.4 mm 6 mps 736 mmHg 85%
    13:00 +8°C° 0.4 mm 6 mps 736 mmHg 87%
    14:00 +8°C° 0.2 mm 6 mps 735 mmHg 85%
    15:00 +9°C° 0.2 mm 5 mps 735 mmHg 82%
    16:00 +9°C° 0.2 mm 5 mps 735 mmHg 80%
    17:00 +9°C° 0.4 mm 5 mps 734 mmHg 79%
    18:00 +9°C° 0.4 mm 5 mps 734 mmHg 78%
    19:00 +9°C° 0.4 mm 5 mps 734 mmHg 77%
    20:00 +9°C° 0 mm 6 mps 734 mmHg 73%
    21:00 +10°C° 0 mm 6 mps 733 mmHg 69%
    22:00 +10°C° 0 mm 6 mps 732 mmHg 65%
    23:00 +10°C° 0 mm 6 mps 732 mmHg 64%

    26 Octubre, Viernes

    Tiempo Temperatura Precipitaciones Viento Presión Humedad
    00:00 +10°C° 0 mm 6 mps 732 mmHg 62%
    01:00 +10°C° 0 mm 6 mps 731 mmHg 61%
    02:00 +10°C° 0.1 mm 6 mps 731 mmHg 63%
    03:00 +10°C° 0.1 mm 6 mps 731 mmHg 64%
    04:00 +10°C° 0.1 mm 6 mps 731 mmHg 66%
    05:00 +9°C° 1.3 mm 6 mps 730 mmHg 71%
    06:00 +9°C° 1.3 mm 6 mps 730 mmHg 77%
    07:00 +8°C° 1.3 mm 5 mps 730 mmHg 82%
    08:00 +8°C° 1.7 mm 5 mps 730 mmHg 84%
    09:00 +8°C° 1.7 mm 5 mps 729 mmHg 87%
    10:00 +7°C° 1.7 mm 5 mps 729 mmHg 89%
    11:00 +7°C° 1 mm 4 mps 730 mmHg 87%
    12:00 +7°C° 1 mm 4 mps 730 mmHg 86%
    13:00 +7°C° 1 mm 3 mps 730 mmHg 85%
    14:00 +7°C° 0.2 mm 3 mps 730 mmHg 84%
    15:00 +7°C° 0.2 mm 3 mps 730 mmHg 82%
    16:00 +7°C° 0.2 mm 3 mps 731 mmHg 81%
    17:00 +5°C° 0 mm 3 mps 731 mmHg 82%
    18:00 +5°C° 0 mm 3 mps 731 mmHg 83%
    19:00 +4°C° 0 mm 3 mps 732 mmHg 84%
    20:00 +4°C° 0 mm 3 mps 732 mmHg 84%
    21:00 +3°C° 0 mm 3 mps 732 mmHg 83%
    22:00 +3°C° 0 mm 3 mps 732 mmHg 82%
    23:00 +3°C° 0 mm 3 mps 733 mmHg 83%

    27 Octubre, Sábado

    Tiempo Temperatura Precipitaciones Viento Presión Humedad
    00:00 +2°C° 0 mm 3 mps 733 mmHg 83%
    01:00 +2°C° 0 mm 3 mps 733 mmHg 83%
    02:00 +2°C° 0 mm 3 mps 733 mmHg 85%
    03:00 +1°C° 0 mm 3 mps 733 mmHg 87%
    04:00 +1°C° 0 mm 3 mps 733 mmHg 88%
    05:00 +1°C° 0 mm 3 mps 734 mmHg 89%
    06:00 +1°C° 0 mm 3 mps 734 mmHg 90%
    07:00 +1°C° 0 mm 3 mps 734 mmHg 91%
    08:00 0°C° 0.1 mm 4 mps 734 mmHg 87%
    09:00 +1°C° 0.1 mm 4 mps 735 mmHg 83%
    10:00 +1°C° 0.1 mm 5 mps 735 mmHg 80%
    11:00 +1°C° 0.1 mm 5 mps 735 mmHg 77%
    12:00 +1°C° 0.1 mm 5 mps 736 mmHg 75%
    13:00 +1°C° 0.1 mm 5 mps 736 mmHg 72%
    14:00 +1°C° 0.1 mm 5 mps 737 mmHg 72%
    15:00 +1°C° 0.1 mm 5 mps 738 mmHg 72%
    16:00 0°C° 0.1 mm 5 mps 738 mmHg 72%
    17:00 0°C° 0 mm 5 mps 739 mmHg 74%
    18:00 0°C° 0 mm 5 mps 739 mmHg 75%
    19:00 0°C° 0 mm 5 mps 740 mmHg 76%
    20:00 -1°C° 0 mm 5 mps 741 mmHg 77%
    21:00 -1°C° 0 mm 5 mps 741 mmHg 77%
    22:00 -1°C° 0 mm 5 mps 742 mmHg 78%
    23:00 -1°C° 0 mm 5 mps 742 mmHg 79%

    28 Octubre, Domingo

    Tiempo Temperatura Precipitaciones Viento Presión Humedad
    00:00 -1°C° 0 mm 5 mps 743 mmHg 80%
    01:00 -1°C° 0 mm 4 mps 743 mmHg 81%
    02:00 -2°C° 0 mm 4 mps 744 mmHg 82%
    03:00 -2°C° 0 mm 4 mps 744 mmHg 83%
    04:00 -2°C° 0 mm 4 mps 745 mmHg 84%
    05:00 -2°C° 0 mm 4 mps 745 mmHg 84%
    06:00 -2°C° 0 mm 4 mps 745 mmHg 84%
    07:00 -2°C° 0 mm 4 mps 745 mmHg 85%
    08:00 -1°C° 0.1 mm 5 mps 745 mmHg 84%
    09:00 -1°C° 0.1 mm 5 mps 744 mmHg 83%
    10:00 -1°C° 0.1 mm 6 mps 744 mmHg 82%
    11:00 -1°C° 0.7 mm 6 mps 744 mmHg 83%
    12:00 +1°C° 0.7 mm 6 mps 744 mmHg 84%
    13:00 +1°C° 0.7 mm 6 mps 743 mmHg 84%
    14:00 +1°C° 0.3 mm 6 mps 743 mmHg 85%
    15:00 +2°C° 0.3 mm 6 mps 743 mmHg 87%
    16:00 +2°C° 0.3 mm 6 mps 743 mmHg 88%
    17:00 +2°C° 0.1 mm 6 mps 743 mmHg 89%
    18:00 +3°C° 0.1 mm 5 mps 743 mmHg 89%
    19:00 +3°C° 0.1 mm 5 mps 744 mmHg 90%
    20:00 +3°C° 0.2 mm 5 mps 744 mmHg 91%
    21:00 +3°C° 0.2 mm 5 mps 744 mmHg 92%
    22:00 +4°C° 0.2 mm 4 mps 744 mmHg 93%
    23:00 +4°C° 0.1 mm 4 mps 745 mmHg 93%
    Mostrar más